Location: Palomar Mountain Lodge
(33.3110°N, 116.8495°W)
Time: 00:14:19
(UTC-07:00)

Cosmos 405 Rocket - Pass Details

Date: 12 July 2018
Orbit: 490 x 557 km, 81.3° (Epoch: 24 September)

Event Time Altitude Azimuth Distance (km) Brightness Sun altitude
Rises 21:38:52 0° 344° (NNW) 2,645 7.3 -18.0°
Reaches altitude 10° 21:41:03 10° 338° (NNW) 1,765 6.4 -18.3°
Maximum altitude 21:44:46 44° 265° (W) 737 3.7 -18.9°
Enters shadow 21:47:04 21° 202° (SSW) 1,247 4.4 -19.2°
